This is the latest recevied weather packets stored in our database for station/object KH6DH-13. If no packets are shown the sender has not sent any weather packets the latest 10 day(s).
| Time | Temp. | Humidity | Pressure | Rain* | Wind** | Luminosity | Snow |
|---|---|---|---|---|---|---|---|
| 1777908981 | 22.78° C | - | - | 0 mm | 0 m/s | - | - |
| 1777908380 | 22.22° C | - | - | 0 mm | 1.79 m/s, 229° | - | - |
| 1777907779 | 22.22° C | - | - | 0 mm | 0 m/s | - | - |
| 1777907178 | 22.22° C | - | - | 0 mm | 1.34 m/s, 76° | - | - |
| 1777906577 | 22.78° C | - | - | 0 mm | 0 m/s | - | - |
| 1777905976 | 22.78° C | - | - | 0 mm | 0.45 m/s, 94° | - | - |
| 1777905375 | 22.22° C | - | - | 0 mm | 1.79 m/s, 58° | - | - |
| 1777904774 | 22.22° C | - | - | 0 mm | 0 m/s | - | - |
| 1777904173 | 22.22° C | - | - | 0 mm | 0.89 m/s, 76° | - | - |
| 1777903572 | 22.22° C | - | - | 0 mm | 0.45 m/s, 135° | - | - |
| 1777902971 | 22.22° C | - | - | 0 mm | 0 m/s | - | - |
| 1777902370 | 22.22° C | - | - | 0 mm | 0.45 m/s, 322° | - | - |
| 1777901769 | 22.22° C | - | - | 0 mm | 0.89 m/s, 58° | - | - |
| 1777901168 | 22.22° C | - | - | 0 mm | 0 m/s | - | - |
| 1777900561 | 22.78° C | - | - | 0 mm | 0.89 m/s, 114° | - | - |
| 1777899960 | 22.78° C | - | - | 0 mm | 0.45 m/s, 46° | - | - |
| 1777899359 | 22.22° C | - | - | 0 mm | 0.45 m/s, 75° | - | - |
| 1777898758 | 22.78° C | - | - | 0 mm | 0.89 m/s, 79° | - | - |
| 1777898157 | 22.22° C | - | - | 0 mm | 1.34 m/s, 104° | - | - |
| 1777897556 | 22.78° C | - | - | 0 mm | 0 m/s | - | - |
| 1777896955 | 22.78° C | - | - | 0 mm | 0 m/s | - | - |
| 1777896354 | 22.22° C | - | - | 0 mm | 0 m/s | - | - |
| 1777895753 | 22.78° C | - | - | 0 mm | 0.89 m/s, 56° | - | - |
| 1777895152 | 22.78° C | - | - | 0 mm | 0.89 m/s, 290° | - | - |
| 1777894551 | 22.78° C | - | - | 0 mm | 0.89 m/s, 127° | - | - |
* Rain latest hour (hover to see other rain measurements)
** Current wind speed in m/s (hover to see current wind gust speed)